CAPE
2444 2905 3122 3311 3628 3476 3280 3012 2741 3044 3190 2933 2785 2707 2235 1895 1891 1760 1830 1711 1658 1494 1262 1166 1128 1027 900 641 455 288 288 200 152 0 0 0 0 0 0 0 0 0 0 0 0 0 0 0 0 0 0 0 0 0 0 0 0 0 0 0 0 0 0
2692 2895 3213 3276 3297 3169 3018 2834 3054 3083 3029 2792 2687 2237 1813 1641 1633 1798 1787 1808 1615 1126 1312 1037 1138 975 740 549 447 258 199 180 48 0 0 0 0 0 0 0 0 0 0 0 0 0 0 0 0 0 0 0 0 0 0 0 0 0 0 0 0 0 0
2777 2960 3294 3280 3154 2771 2849 2614 2591 2970 2877 2756 2676 2057 1721 1648 1680 1845 1796 1741 1530 1017 852 998 964 1043 803 503 382 276 225 215 177 0 0 0 0 0 0 0 0 0 0 0 0 0 0 0 0 0 0 0 0 0 0 0 0 0 0 0 0 0 0
2940 3193 3230 3056 2970 2566 2633 2706 2783 2878 2528 2752 2425 2048 1714 1856 1606 1848 1506 1587 1024 912 978 877 878 772 462 379 311 275 250 230 206 91 0 0 0 0 0 0 0 0 0 0 0 0 0 0 0 0 0 0 0 0 0 0 0 0 0 0 0 0 0
3012 3008 2865 2709 2490 2585 2620 2691 2722 2619 2474 2775 2493 1821 1708 1666 1654 1562 1297 1398 1006 1100 1075 990 737 601 441 353 331 331 300 251 208 0 0 0 0 0 0 0 0 0 0 0 0 0 0 0 0 0 0 0 0 0 0 0 0 0 0 0 0 0 0
2853 2722 2548 2498 2539 2622 2649 2689 2768 2544 2317 2392 2330 1894 1733 1534 1335 1252 1223 1330 1287 1216 1178 835 596 453 394 394 332 248 219 262 196 135 0 0 0 0 0 0 0 0 0 0 0 0 0 0 0 0 1 0 0 0 0 0 0 0 0 0 0 0 0
2548 2401 2392 2653 2646 2780 2796 2634 2513 2208 2154 2317 1963 1728 1620 1410 1296 1252 1411 1550 1398 1322 865 621 564 550 436 354 312 293 303 262 171 175 13 0 0 0 0 0 0 0 0 0 0 0 0 0 0 0 0 0 0 0 0 0 0 0 0 0 0 0 0
2274 2299 2493 2574 2552 2833 2670 2666 2246 2190 2094 1906 1768 1774 1640 1284 1159 1400 1612 1421 1246 948 696 622 608 504 410 343 323 258 264 232 170 5 0 0 0 0 0 0 0 0 0 0 0 0 0 0 0 0 0 0 0 0 0 0 0 0 0 0 0 0 0
2071 2198 2281 2435 2598 2741 2519 2407 2088 2120 1938 1822 1808 1813 1598 1250 1360 1443 1366 1293 1215 1004 724 626 503 458 396 342 302 268 228 159 105 54 0 0 0 0 0 0 0 0 0 0 0 0 0 0 0 0 0 0 0 0 0 0 0 0 0 0 0 0 0
2454 2335 2332 2506 2628 2506 2465 2037 1966 2030 1925 1699 1747 1909 1596 1358 1376 1333 1241 1178 1064 828 731 661 534 414 393 357 254 211 169 87 83 0 0 0 0 0 0 0 0 0 0 0 0 0 0 0 1 18 6 1 0 0 0 0 0 0 0 0 0 0 0
2308 2400 2351 2408 2334 2564 2330 1927 1891 1900 1860 1736 1778 1881 1592 1375 1308 1312 1172 862 890 797 636 545 455 350 298 241 204 159 123 58 44 0 0 0 0 0 0 0 0 0 0 0 0 0 0 1 23 28 16 6 0 0 0 0 0 0 0 0 0 0 0
2259 2395 2386 2084 2149 2058 1987 1944 1827 1761 1691 1689 1796 1819 1588 1220 1180 1167 1028 870 842 642 504 426 362 261 194 175 161 118 16 0 0 0 0 0 0 0 0 0 0 0 0 0 0 0 2 6 14 15 10 1 0 0 0 0 0 0 0 1 0 0 4
2226 2274 2229 1932 2067 1968 1930 1906 1754 1593 1477 1522 1608 1702 1619 1278 1176 1154 967 853 726 494 440 402 334 220 139 0 0 0 0 0 0 0 0 0 0 0 0 0 0 0 0 0 0 0 9 4 16 14 8 0 2 0 3 2 3 5 12 13 12 10 3
2165 2280 2012 1949 2042 1844 1692 1810 1724 1488 1297 1319 1412 1516 1597 1296 1211 1152 888 795 558 418 366 316 257 222 109 0 0 0 0 0 0 0 0 0 0 0 0 0 0 2 2 0 11 10 11 9 10 6 6 2 3 8 20 19 10 17 28 25 20 16 7
2113 2172 1976 1830 1756 1738 1516 1516 1519 1443 1257 1189 1282 1426 1490 1352 1225 1076 828 639 474 371 347 307 271 210 70 0 0 0 0 0 0 0 0 0 0 0 0 2 0 7 10 3 7 10 21 18 20 4 12 6 10 20 18 25 26 24 11 16 23 20 14
2143 2032 2002 1861 1816 1648 1531 1448 1560 1528 1468 1375 1419 1243 1207 1265 1146 1050 836 534 481 476 389 288 253 108 0 0 0 0 0 0 0 0 0 0 0 0 2 1 4 4 11 19 22 28 28 16 13 20 8 20 11 14 10 11 20 18 16 24 16 14 16
2267 2124 2053 2065 1966 1774 1468 1228 1534 1483 1500 1284 1090 1241 1284 1330 862 747 521 537 576 414 336 261 176 0 0 0 0 0 0 0 0 0 0 0 0 1 4 9 13 16 20 26 34 41 29 28 38 41 28 8 11 14 8 15 22 4 31 50 34 29 22
2132 2078 2049 2027 1828 1703 1542 1362 1448 1432 1274 1084 1070 977 678 689 444 410 280 288 338 378 264 129 0 0 0 0 0 0 0 0 0 0 0 0 0 2 10 8 14 13 22 31 42 43 31 33 24 26 26 28 30 24 8 17 10 6 57 71 66 56 35
2022 1903 2016 1692 1671 1524 1487 1375 1349 1301 1308 1203 1002 636 498 360 325 326 422 356 348 316 210 0 0 0 0 0 0 0 0 0 0 0 0 0 4 8 9 19 14 16 17 26 43 52 30 26 25 22 28 33 42 34 20 19 242 36 44 170 226 283 250
2208 1875 1726 1579 1424 1360 1338 1300 1250 1188 1082 1115 829 563 379 356 360 283 363 373 269 70 0 0 0 0 0 0 0 0 0 0 0 0 0 2 7 8 8 19 16 14 15 18 40 35 36 26 26 26 39 36 37 35 26 16 214 8 48 138 142 230 318
2002 1909 1983 1802 1651 1442 1280 1352 1348 1251 1047 1002 754 500 366 406 354 307 340 304 176 0 0 0 0 0 0 0 0 0 0 0 0 0 3 4 9 11 6 13 14 14 19 18 23 23 31 18 16 16 29 36 33 29 22 4 58 40 106 151 66 69 339
2091 1928 1962 1955 1756 1569 1358 1088 1210 1047 956 832 772 586 128 217 268 336 288 269 47 0 0 0 0 0 0 0 0 0 0 1 4 5 8 12 12 9 8 12 16 13 14 19 28 24 25 21 18 21 24 46 46 49 19 13 22 21 50 49 87 72 143
2271 2202 2159 2121 1792 1540 1268 1062 1062 977 852 732 707 500 353 288 294 266 232 141 0 0 0 0 0 0 0 0 0 0 2 8 9 5 6 10 5 8 8 8 16 14 18 15 16 22 28 22 22 25 22 36 38 42 33 16 29 10 24 36 15 240 73
2417 2487 2547 2156 1631 1300 1140 1191 993 806 673 774 614 395 372 222 228 240 188 25 0 0 0 0 0 0 0 0 0 0 5 5 8 16 15 10 7 8 9 5 11 15 19 16 19 22 16 19 20 22 24 30 29 24 26 23 14 43 43 0 1 162 66
2490 2476 2222 1916 1638 1264 1211 1060 998 902 692 696 573 446 354 263 220 200 183 156 28 62 0 0 0 0 0 0 0 0 0 8 12 25 19 18 15 8 8 10 8 12 14 13 16 24 26 20 20 24 26 31 36 29 48 36 26 19 30 1 0 212 97
2089 1815 1776 1727 1558 1266 1197 1066 893 745 718 654 565 448 412 309 101 97 224 173 208 50 0 1 7 0 97 38 1 3 13 20 17 19 26 20 14 13 11 8 10 14 15 13 18 24 30 22 14 19 20 22 28 23 28 55 52 28 37 24 10 32 321
1890 1657 1546 1458 1478 1096 1065 969 802 760 740 656 589 483 476 376 280 268 246 238 194 3 0 54 66 115 130 0 3 11 20 18 24 20 24 21 15 17 12 11 10 16 13 15 28 26 22 20 20 20 20 24 22 19 36 24 56 56 64 63 36 48 424
1776 1544 1564 1471 1323 1142 1050 978 914 802 745 690 622 581 530 445 376 354 298 309 214 136 103 135 142 58 0 1 0 6 17 16 22 21 15 16 14 13 9 9 10 12 9 19 22 28 26 20 20 16 18 25 30 28 43 32 44 89 108 107 119 105 74
1694 1472 1364 1298 1015 1138 985 938 914 899 812 756 718 685 665 533 462 437 414 378 288 187 178 185 173 38 0 1 2 4 12 17 18 11 10 14 13 9 12 11 9 12 18 30 33 26 24 20 20 23 28 28 34 24 34 47 80 225 197 190 125 122 60
1867 1579 1326 1328 1108 1123 926 852 853 875 891 882 825 812 782 616 590 552 460 478 391 246 227 246 198 26 43 28 3 12 13 15 14 15 16 15 19 18 19 18 18 21 14 32 24 22 18 16 15 25 28 29 20 19 28 44 76 99 515 546 339 172 122
1786 1429 1139 1154 998 941 868 775 688 752 859 912 930 931 903 712 568 622 552 536 515 316 268 272 222 152 23 10 4 17 18 18 15 18 15 12 16 15 18 21 18 15 19 29 22 16 14 22 11 20 20 24 37 46 52 76 104 140 466 935 730 226 80
1606 1491 1166 980 957 974 896 752 723 616 569 800 864 868 904 853 692 579 452 524 418 350 288 257 223 138 13 1 10 25 29 23 15 16 19 16 17 18 16 11 11 12 12 19 10 12 19 18 12 6 8 20 41 72 101 121 154 154 132 120 741 969 382
1646 1482 1369 1012 1087 1059 1001 836 727 703 666 562 480 654 764 768 582 486 504 489 374 314 284 216 135 95 23 0 42 50 22 20 18 14 14 8 20 18 16 11 8 7 9 5 2 17 22 11 11 7 8 16 63 139 218 340 235 182 123 130 135 165 337
1684 1630 1431 1120 1116 1026 1017 1068 971 920 844 795 553 480 620 725 634 524 402 333 300 255 203 135 128 62 31 14 18 14 18 9 1 2 10 11 14 10 4 12 4 2 0 3 6 12 19 17 19 9 14 26 48 76 125 191 238 109 138 295 408 373 244
1624 1558 1366 915 925 1003 958 824 1044 1130 966 835 480 420 529 633 538 423 284 254 239 219 175 145 97 17 15 11 2 0 1 2 2 7 1 3 4 8 8 9 4 0 3 4 17 27 28 40 32 41 73 51 64 95 72 56 61 238 249 1298 40 290 66
1468 1174 1208 886 762 952 906 758 568 864 797 513 447 335 400 437 354 275 144 165 161 142 186 166 40 20 7 0 0 0 0 0 0 0 1 3 4 3 2 0 4 11 26 21 17 41 19 18 67 14 36 48 68 68 67 93 113 52 0 0 0 0 0
1361 1040 908 922 979 887 883 685 648 652 530 414 517 506 440 370 140 221 186 136 136 187 242 144 35 2 0 2 0 0 0 0 0 0 4 6 4 7 2 1 28 0 0 2 46 44 15 0 0 0 0 25 20 28 12 1 0 0 0 0 0 0 0
1188 1080 832 721 880 910 852 690 556 559 598 436 432 420 377 258 230 218 174 174 260 173 114 99 10 0 1 3 0 0 0 0 0 0 3 7 6 6 0 5 19 113 76 0 0 0 0 0 0 0 0 0 0 12 65 36 0 0 0 0 0 0 0
Wind_Speed
21 22 22 23 26 28 31 34 36 35 34 34 35 36 37 37 38 38 39 41 43 43 43 42 35 31 29 25 26 29 29 28 26 nan nan nan nan nan nan nan nan nan nan nan nan nan nan nan nan nan nan nan nan nan nan nan nan nan nan nan nan nan nan
20 21 23 23 25 29 32 35 35 33 34 34 34 38 37 39 39 39 41 42 43 43 40 38 34 30 27 26 27 30 29 28 nan nan nan nan nan nan nan nan nan nan nan nan nan nan nan nan nan nan nan nan nan nan nan nan nan nan nan nan nan nan nan
19 21 24 24 26 29 33 33 33 33 35 34 35 37 37 39 40 41 42 42 43 39 36 34 34 33 31 31 31 31 30 28 27 nan nan nan nan nan nan nan nan nan nan nan nan nan nan nan nan nan nan nan nan nan nan nan nan nan nan nan nan nan nan
19 21 24 26 28 31 31 30 33 34 34 34 38 37 39 40 40 41 41 43 44 38 33 30 32 32 31 31 30 29 30 29 26 nan nan nan nan nan nan nan nan nan nan nan nan nan nan nan nan nan nan nan nan nan nan nan nan nan nan nan nan nan nan
22 25 27 28 29 29 29 29 34 35 35 33 37 37 39 40 41 42 41 42 44 36 29 30 30 29 29 28 28 28 29 29 26 nan nan nan nan nan nan nan nan nan nan nan nan nan nan nan nan nan nan nan nan nan nan nan nan nan nan nan nan nan nan
26 27 28 28 29 28 29 32 36 35 35 35 37 37 39 42 43 44 44 44 40 31 27 32 33 30 30 29 29 31 30 28 26 25 nan nan nan nan nan nan nan nan nan nan nan nan nan nan nan nan nan nan nan nan nan nan nan nan nan nan nan nan nan
28 27 27 28 29 31 32 35 37 35 35 34 35 37 39 41 44 45 43 44 36 30 31 34 32 31 31 29 31 32 30 29 27 26 nan nan nan nan nan nan nan nan nan nan nan nan nan nan nan nan nan nan nan nan nan nan nan nan nan nan nan nan nan
27 27 27 28 30 33 35 36 36 35 34 33 36 37 40 42 44 44 43 40 33 28 31 33 33 32 31 29 31 31 30 29 26 nan nan nan nan nan nan nan nan nan nan nan nan nan nan nan nan nan nan nan nan nan nan nan nan nan nan nan nan nan nan
26 26 27 27 31 33 32 33 34 36 37 37 36 38 40 43 44 44 44 41 33 30 32 33 34 34 30 29 30 31 30 28 26 nan nan nan nan nan nan nan nan nan nan nan nan nan nan nan nan nan nan nan nan nan nan nan nan nan nan nan nan nan nan
25 26 26 27 30 30 31 33 36 37 37 35 35 37 41 43 43 43 41 39 34 33 34 35 35 33 31 30 31 31 30 nan nan nan nan nan nan nan nan nan nan nan nan nan nan nan nan nan nan nan nan nan nan nan nan nan nan nan nan nan nan nan nan
29 29 29 31 31 31 35 36 39 40 38 33 32 35 40 42 42 42 39 36 35 35 37 36 36 33 30 29 31 31 29 nan nan nan nan nan nan nan nan nan nan nan nan nan nan nan nan nan nan nan nan nan nan nan nan nan nan nan nan nan nan nan nan
35 35 35 34 33 35 36 38 40 41 40 34 32 37 41 41 41 40 38 36 35 36 36 36 36 33 30 29 30 30 nan nan nan nan nan nan nan nan nan nan nan nan nan nan nan nan nan nan nan nan nan nan nan nan nan nan nan nan nan nan nan nan nan
39 39 38 35 33 34 36 38 41 43 42 37 34 37 38 39 39 38 34 35 35 34 36 37 36 32 29 nan nan nan nan nan nan nan nan nan nan nan nan nan nan nan nan nan nan nan nan nan nan nan nan nan nan nan nan nan nan nan nan nan nan nan nan
42 39 36 33 32 34 35 36 38 40 39 38 36 37 36 36 36 35 33 34 33 34 36 35 34 30 28 nan nan nan nan nan nan nan nan nan nan nan nan nan nan nan nan nan nan nan nan nan nan nan nan nan nan nan nan nan nan nan nan nan nan nan nan
39 35 33 33 30 31 32 33 34 36 37 37 38 36 35 34 33 31 30 32 32 34 35 33 30 28 nan nan nan nan nan nan nan nan nan nan nan nan nan nan nan nan nan nan nan nan nan nan nan nan nan nan nan nan nan nan nan nan nan nan nan nan nan
34 33 32 32 32 31 33 31 31 33 36 36 38 34 32 32 31 28 28 29 30 31 30 29 28 27 nan nan nan nan nan nan nan nan nan nan nan nan nan nan nan nan nan nan nan nan nan nan nan nan nan nan nan nan nan nan nan nan nan nan nan nan nan
31 31 31 31 33 35 35 31 29 34 35 34 35 32 27 25 25 24 24 25 27 28 27 26 27 nan nan nan nan nan nan nan nan nan nan nan nan nan nan nan nan nan nan nan nan nan nan nan nan nan nan nan nan nan nan nan nan nan nan nan nan nan nan
31 31 31 33 35 37 37 37 34 35 33 33 31 28 24 24 22 21 19 20 22 24 25 25 nan nan nan nan nan nan nan nan nan nan nan nan nan nan nan nan nan nan nan nan nan nan nan nan nan nan nan nan nan nan nan nan nan nan nan nan nan nan nan
29 30 32 33 35 37 38 38 37 37 36 35 33 27 22 23 21 15 16 19 21 23 25 nan nan nan nan nan nan nan nan nan nan nan nan nan nan nan nan nan nan nan nan nan nan nan nan nan nan nan nan nan nan nan nan nan 27 nan nan 15 15 15 15
29 31 31 31 33 37 41 42 40 39 37 36 35 32 30 27 24 19 19 19 20 nan nan nan nan nan nan nan nan nan nan nan nan nan nan nan nan nan nan nan nan nan nan nan nan nan nan nan nan nan nan nan nan nan nan nan 22 nan nan 16 16 15 16
28 31 32 32 35 40 44 46 45 43 43 40 35 33 36 33 25 20 19 18 20 nan nan nan nan nan nan nan nan nan nan nan nan nan nan nan nan nan nan nan nan nan nan nan nan nan nan nan nan nan nan nan nan nan nan nan nan nan 17 17 nan nan 17
29 31 32 32 35 38 42 45 46 44 43 42 37 34 38 32 23 21 22 19 nan nan nan nan nan nan nan nan nan nan nan nan nan nan nan nan nan nan nan nan nan nan nan nan nan nan nan nan nan nan nan nan nan nan nan nan nan nan nan nan nan nan 16
29 31 32 34 35 36 35 39 42 42 42 38 32 28 28 28 27 25 24 22 nan nan nan nan nan nan nan nan nan nan nan nan nan nan nan nan nan nan nan nan nan nan nan nan nan nan nan nan nan nan nan nan nan nan nan nan nan nan nan nan nan 17 nan
29 31 33 35 35 36 35 36 37 39 38 36 28 22 21 21 21 20 21 nan nan nan nan nan nan nan nan nan nan nan nan nan nan nan nan nan nan nan nan nan nan nan nan nan nan nan nan nan nan nan nan nan nan nan nan nan nan nan nan nan nan 17 nan
30 33 33 34 35 35 35 35 35 35 33 31 23 20 21 21 19 17 18 21 nan nan nan nan nan nan nan nan nan nan nan nan nan nan nan nan nan nan nan nan nan nan nan nan nan nan nan nan nan nan nan nan nan nan nan nan nan nan nan nan nan 19 nan
30 31 32 32 32 31 30 31 31 30 29 27 23 21 21 21 18 nan 18 20 19 nan nan nan nan nan nan nan nan nan nan nan nan nan nan nan nan nan nan nan nan nan nan nan nan nan nan nan nan nan nan nan nan nan nan nan nan nan nan nan nan nan 18
30 31 31 30 29 28 27 28 29 27 26 23 23 23 22 21 18 18 18 19 19 nan nan nan nan 19 18 nan nan nan nan nan nan nan nan nan nan nan nan nan nan nan nan nan nan nan nan nan nan nan nan nan nan nan nan nan nan nan nan nan nan nan 21
29 28 27 27 28 27 26 26 25 25 24 23 23 23 22 21 19 19 19 20 20 18 17 19 18 nan nan nan nan nan nan nan nan nan nan nan nan nan nan nan nan nan nan nan nan nan nan nan nan nan nan nan nan nan nan nan nan nan 19 24 22 23 nan
28 26 26 26 28 26 26 25 23 22 22 22 22 22 21 22 22 20 21 19 20 18 18 17 17 nan nan nan nan nan nan nan nan nan nan nan nan nan nan nan nan nan nan nan nan nan nan nan nan nan nan nan nan nan nan nan nan 18 16 21 24 23 nan
24 23 23 24 25 24 23 22 21 21 21 21 22 22 22 21 21 21 20 20 19 18 18 19 18 nan nan nan nan nan nan nan nan nan nan nan nan nan nan nan nan nan nan nan nan nan nan nan nan nan nan nan nan nan nan nan nan nan 21 19 24 24 24
20 21 22 24 24 23 21 21 22 21 21 21 23 23 22 22 22 22 21 20 21 19 18 19 18 16 nan nan nan nan nan nan nan nan nan nan nan nan nan nan nan nan nan nan nan nan nan nan nan nan nan nan nan nan nan nan 13 13 18 24 22 24 nan
19 20 21 22 22 23 21 21 22 22 22 22 23 22 22 21 21 22 20 21 22 20 17 17 17 16 nan nan nan nan nan nan nan nan nan nan nan nan nan nan nan nan nan nan nan nan nan nan nan nan nan nan nan nan 11 12 13 14 15 17 21 22 26
19 20 20 20 20 21 20 21 21 21 21 22 21 19 19 19 17 18 19 19 20 19 18 17 18 nan nan nan nan nan nan nan nan nan nan nan nan nan nan nan nan nan nan nan nan nan nan nan nan nan nan nan nan 10 11 12 13 14 14 15 16 16 19
20 20 19 18 19 19 18 17 19 19 19 18 18 17 17 16 15 16 17 17 19 20 20 20 20 nan nan nan nan nan nan nan nan nan nan nan nan nan nan nan nan nan nan nan nan nan nan nan nan nan nan nan nan nan 9 10 12 14 14 15 14 14 13
19 19 19 19 18 17 17 18 19 19 18 17 16 17 17 17 16 17 19 19 20 21 22 21 nan nan nan nan nan nan nan nan nan nan nan nan nan nan nan nan nan nan nan nan nan nan nan nan nan nan nan nan nan nan nan nan nan 12 17 14 nan 14 nan
20 20 20 19 17 17 17 18 19 20 19 17 17 18 19 20 18 18 19 20 21 22 22 22 nan nan nan nan nan nan nan nan nan nan nan nan nan nan nan nan nan nan nan nan nan nan nan nan nan nan nan nan nan nan nan nan 11 nan nan nan nan nan nan
19 19 19 19 19 19 19 21 22 21 20 19 19 19 19 19 19 19 21 21 22 22 23 24 nan nan nan nan nan nan nan nan nan nan nan nan nan nan nan nan nan nan nan nan nan nan nan nan nan nan nan nan nan nan nan nan nan nan nan nan nan nan nan
17 18 19 18 18 19 20 21 21 21 21 19 19 18 18 19 19 20 22 22 23 23 25 nan nan nan nan nan nan nan nan nan nan nan nan nan nan nan nan nan nan 16 nan nan nan nan nan nan nan nan nan nan nan nan nan nan nan nan nan nan nan nan nan
Wind_Direction
308 315 314 310 316 321 327 334 336 335 330 329 334 331 331 332 329 327 325 325 326 327 327 329 328 327 330 334 336 334 335 335 337 nan nan nan nan nan nan nan nan nan nan nan nan nan nan nan nan nan nan nan nan nan nan nan nan nan nan nan nan nan nan
302 305 304 309 318 324 330 333 334 331 326 326 329 326 328 330 327 326 326 327 327 328 326 329 326 324 328 331 333 333 331 334 nan nan nan nan nan nan nan nan nan nan nan nan nan nan nan nan nan nan nan nan nan nan nan nan nan nan nan nan nan nan nan
293 294 298 306 316 323 326 331 332 329 326 323 323 323 326 326 325 325 324 326 325 323 325 330 328 326 330 331 331 329 329 329 328 nan nan nan nan nan nan nan nan nan nan nan nan nan nan nan nan nan nan nan nan nan nan nan nan nan nan nan nan nan nan
289 293 299 306 311 317 321 325 330 324 322 322 319 321 322 322 321 321 323 323 323 326 327 330 332 330 330 328 322 324 327 329 330 nan nan nan nan nan nan nan nan nan nan nan nan nan nan nan nan nan nan nan nan nan nan nan nan nan nan nan nan nan nan
291 296 300 304 310 312 315 321 325 318 319 316 315 318 317 315 317 319 320 323 325 326 330 333 332 329 327 322 323 327 329 329 326 nan nan nan nan nan nan nan nan nan nan nan nan nan nan nan nan nan nan nan nan nan nan nan nan nan nan nan nan nan nan
295 299 302 306 308 309 312 318 321 315 315 315 314 312 312 314 317 319 320 323 324 321 325 332 333 328 323 323 327 327 327 323 319 318 nan nan nan nan nan nan nan nan nan nan nan nan nan nan nan nan nan nan nan nan nan nan nan nan nan nan nan nan nan
299 302 305 307 308 308 313 317 313 307 308 308 304 307 310 313 315 315 318 321 319 319 324 329 330 326 324 324 325 324 324 319 317 319 nan nan nan nan nan nan nan nan nan nan nan nan nan nan nan nan nan nan nan nan nan nan nan nan nan nan nan nan nan
304 304 304 305 306 305 307 311 304 301 302 299 304 307 310 309 311 314 312 314 318 321 322 328 330 328 325 323 322 322 320 316 317 nan nan nan nan nan nan nan nan nan nan nan nan nan nan nan nan nan nan nan nan nan nan nan nan nan nan nan nan nan nan
307 305 303 303 301 299 303 302 297 295 297 299 301 305 307 307 307 307 309 313 318 321 324 327 328 325 321 317 318 319 317 317 320 nan nan nan nan nan nan nan nan nan nan nan nan nan nan nan nan nan nan nan nan nan nan nan nan nan nan nan nan nan nan
312 309 306 306 298 299 299 290 289 287 290 294 299 304 306 303 300 304 307 311 316 319 321 323 324 323 317 314 317 318 319 nan nan nan nan nan nan nan nan nan nan nan nan nan nan nan nan nan nan nan nan nan nan nan nan nan nan nan nan nan nan nan nan
314 316 313 305 300 298 297 290 288 287 290 292 298 302 302 303 300 304 307 310 315 319 322 321 323 321 315 314 317 320 321 nan nan nan nan nan nan nan nan nan nan nan nan nan nan nan nan nan nan nan nan nan nan nan nan nan nan nan nan nan nan nan nan
313 316 314 310 304 301 299 294 291 293 295 296 301 303 302 302 302 305 308 311 313 316 318 320 321 318 316 317 319 320 nan nan nan nan nan nan nan nan nan nan nan nan nan nan nan nan nan nan nan nan nan nan nan nan nan nan nan nan nan nan nan nan nan
312 315 313 314 311 303 299 298 299 300 299 299 300 303 296 299 300 302 305 307 309 314 317 319 317 317 319 nan nan nan nan nan nan nan nan nan nan nan nan nan nan nan nan nan nan nan nan nan nan nan nan nan nan nan nan nan nan nan nan nan nan nan nan
309 311 313 312 313 308 305 300 299 301 301 299 300 302 299 296 298 299 303 306 310 315 316 315 316 318 319 nan nan nan nan nan nan nan nan nan nan nan nan nan nan nan nan nan nan nan nan nan nan nan nan nan nan nan nan nan nan nan nan nan nan nan nan
308 308 309 310 309 304 301 299 297 300 300 298 298 301 301 295 294 297 303 307 312 313 313 312 315 318 nan nan nan nan nan nan nan nan nan nan nan nan nan nan nan nan nan nan nan nan nan nan nan nan nan nan nan nan nan nan nan nan nan nan nan nan nan
301 301 308 312 311 311 307 304 304 300 299 296 298 293 291 287 291 295 299 304 308 307 307 312 315 316 nan nan nan nan nan nan nan nan nan nan nan nan nan nan nan nan nan nan nan nan nan nan nan nan nan nan nan nan nan nan nan nan nan nan nan nan nan
308 311 319 321 319 315 311 313 317 310 301 292 289 286 271 268 280 289 294 301 305 305 308 312 313 nan nan nan nan nan nan nan nan nan nan nan nan nan nan nan nan nan nan nan nan nan nan nan nan nan nan nan nan nan nan nan nan nan nan nan nan nan nan
318 323 330 332 329 327 325 324 322 316 303 295 291 282 262 253 258 270 292 305 304 305 310 311 nan nan nan nan nan nan nan nan nan nan nan nan nan nan nan nan nan nan nan nan nan nan nan nan nan nan nan nan nan nan nan nan nan nan nan nan nan nan nan
331 334 337 335 330 328 327 323 317 309 303 309 307 288 275 276 274 287 312 314 306 305 311 nan nan nan nan nan nan nan nan nan nan nan nan nan nan nan nan nan nan nan nan nan nan nan nan nan nan nan nan nan nan nan nan nan 315 nan nan 349 350 353 353
334 335 336 333 332 334 334 327 315 307 303 308 312 303 287 275 275 289 306 307 305 nan nan nan nan nan nan nan nan nan nan nan nan nan nan nan nan nan nan nan nan nan nan nan nan nan nan nan nan nan nan nan nan nan nan nan 312 nan nan 344 345 351 355
332 334 336 337 338 341 341 335 326 315 310 310 316 304 287 273 266 289 306 305 305 nan nan nan nan nan nan nan nan nan nan nan nan nan nan nan nan nan nan nan nan nan nan nan nan nan nan nan nan nan nan nan nan nan nan nan nan nan 344 340 nan nan 354
333 336 338 336 339 342 340 336 332 321 315 312 315 318 313 298 292 308 314 306 nan nan nan nan nan nan nan nan nan nan nan nan nan nan nan nan nan nan nan nan nan nan nan nan nan nan nan nan nan nan nan nan nan nan nan nan nan nan nan nan nan nan 350
332 336 337 336 338 339 337 335 331 324 320 318 316 317 319 310 302 305 306 308 nan nan nan nan nan nan nan nan nan nan nan nan nan nan nan nan nan nan nan nan nan nan nan nan nan nan nan nan nan nan nan nan nan nan nan nan nan nan nan nan nan 353 nan
327 327 329 335 335 334 334 333 334 332 332 330 329 333 333 325 310 303 307 nan nan nan nan nan nan nan nan nan nan nan nan nan nan nan nan nan nan nan nan nan nan nan nan nan nan nan nan nan nan nan nan nan nan nan nan nan nan nan nan nan nan 353 nan
322 320 325 330 334 334 337 336 338 339 341 343 343 347 346 339 322 314 318 321 nan nan nan nan nan nan nan nan nan nan nan nan nan nan nan nan nan nan nan nan nan nan nan nan nan nan nan nan nan nan nan nan nan nan nan nan nan nan nan nan nan 351 nan
325 327 330 330 333 336 335 335 338 342 344 349 349 340 340 343 334 nan 326 326 328 nan nan nan nan nan nan nan nan nan nan nan nan nan nan nan nan nan nan nan nan nan nan nan nan nan nan nan nan nan nan nan nan nan nan nan nan nan nan nan nan nan 352
325 329 330 331 331 330 333 334 338 342 344 345 341 340 342 345 338 336 329 327 332 nan nan nan nan 316 323 nan nan nan nan nan nan nan nan nan nan nan nan nan nan nan nan nan nan nan nan nan nan nan nan nan nan nan nan nan nan nan nan nan nan nan 355
325 327 329 328 326 334 330 334 337 339 340 336 341 344 345 340 334 334 330 329 329 324 309 310 320 nan nan nan nan nan nan nan nan nan nan nan nan nan nan nan nan nan nan nan nan nan nan nan nan nan nan nan nan nan nan nan nan nan 347 351 354 352 nan
325 325 324 326 330 333 330 332 336 337 339 335 339 343 340 339 336 334 332 331 330 316 309 322 331 nan nan nan nan nan nan nan nan nan nan nan nan nan nan nan nan nan nan nan nan nan nan nan nan nan nan nan nan nan nan nan nan 354 356 350 351 354 nan
321 320 320 322 326 327 330 329 331 333 337 336 337 342 337 333 334 341 340 342 325 316 324 331 335 nan nan nan nan nan nan nan nan nan nan nan nan nan nan nan nan nan nan nan nan nan nan nan nan nan nan nan nan nan nan nan nan nan 355 353 350 356 1
318 318 320 322 323 326 331 331 331 332 335 336 338 339 340 339 342 345 348 329 313 326 331 334 337 337 nan nan nan nan nan nan nan nan nan nan nan nan nan nan nan nan nan nan nan nan nan nan nan nan nan nan nan nan nan nan 353 353 351 354 356 358 nan
316 318 321 322 324 330 333 331 331 332 334 332 335 336 338 338 342 342 343 323 327 331 330 334 338 343 nan nan nan nan nan nan nan nan nan nan nan nan nan nan nan nan nan nan nan nan nan nan nan nan nan nan nan nan 355 353 353 355 352 351 356 358 1
319 323 326 326 325 329 332 329 330 329 329 330 331 331 330 332 333 334 327 324 332 333 338 344 344 nan nan nan nan nan nan nan nan nan nan nan nan nan nan nan nan nan nan nan nan nan nan nan nan nan nan nan nan 354 355 354 352 352 349 349 350 354 355
321 322 325 324 325 330 326 327 325 327 330 329 330 330 327 331 338 337 340 342 340 341 342 347 350 nan nan nan nan nan nan nan nan nan nan nan nan nan nan nan nan nan nan nan nan nan nan nan nan nan nan nan nan nan 350 353 353 349 349 345 342 343 347
321 321 320 323 327 330 325 328 331 335 334 335 335 335 336 342 348 346 349 349 347 343 345 346 nan nan nan nan nan nan nan nan nan nan nan nan nan nan nan nan nan nan nan nan nan nan nan nan nan nan nan nan nan nan nan nan nan 338 312 320 nan 337 nan
318 319 321 321 325 327 325 328 331 336 339 341 343 344 344 346 349 350 350 349 347 346 345 345 nan nan nan nan nan nan nan nan nan nan nan nan nan nan nan nan nan nan nan nan nan nan nan nan nan nan nan nan nan nan nan nan 348 nan nan nan nan nan nan
318 320 320 322 322 324 327 327 335 340 342 346 346 345 346 349 349 351 349 348 345 346 345 346 nan nan nan nan nan nan nan nan nan nan nan nan nan nan nan nan nan nan nan nan nan nan nan nan nan nan nan nan nan nan nan nan nan nan nan nan nan nan nan
321 321 320 322 325 330 332 335 339 342 343 346 347 348 348 349 346 349 345 346 346 349 348 nan nan nan nan nan nan nan nan nan nan nan nan nan nan nan nan nan nan 344 nan nan nan nan nan nan nan nan nan nan nan nan nan nan nan nan nan nan nan nan nan